Flag for New Zealand Weather past 2 weeks in Christchurch, New Zealand

Now
66 °F

Partly sunny.


Feels Like: 66 °F
Forecast: 63 / 72 °F
Wind: 10 mph from East

Location: Christchurch Airport

Current Time: Jan 27, 2015 at 7:55:24 PM

Latest Report: Jan 27, 2015 at 7:30 PM


Visibility: N/A

Pressure: 29.95 "Hg

Humidity: 78%

Dew point: 59 °F

Location of ChristchurchLocation

Historic Weather in Christchurch — Graph

°F

Christchurch temperature yesterday

Maximum temperature yesterday: 73 °F (at 3:00 PM)
Minimum temperature yesterday: 61 °F (at 3:00 AM)
Average temperature yesterday: 66 °F

Past Weeks' High & Low Weather Summary

 TemperatureHumidityPressure
High90 °F (Jan 18, 3:00 PM)100% (Jan 13, 2:00 AM)30.33 "Hg (Jan 13, 2:00 AM)
Low39 °F (Jan 22, 5:30 AM)15% (Jan 18, 3:00 PM)29.30 "Hg (Jan 18, 3:30 PM)
Average64 °F70%29.87 "Hg
* Reported Jan 12 6:00 PM — Jan 27 6:30 PM, Christchurch, Weather by CustomWeather, © 2014

Note: Actual official high and low records may vary slightly from our data, if they occured in-between our weather recording intervals... More about our weather records

Advertising

Christchurch weather history for previous 24 hours

 ConditionsComfort  
Time TempWeatherWind HumidityBarometerVisibility
6:30 PM
Jan 27
68 °FOvercast.13 mph73%29.92 "HgN/A
6:00 PM68 °FOvercast.13 mph73%29.92 "HgN/A
5:30 PM70 °FMore clouds than sun.12 mph69%29.92 "HgN/A
5:00 PM70 °FOvercast.8 mph64%29.92 "HgN/A
4:30 PM72 °FPartly sunny.6 mph61%29.92 "HgN/A
4:00 PM72 °FPartly sunny.9 mph61%29.92 "HgN/A
3:30 PM68 °FOvercast.9 mph69%29.95 "HgN/A
3:00 PM68 °FOvercast.9 mph69%29.95 "HgN/A
2:30 PM68 °FOvercast.12 mph73%29.95 "HgN/A
1:30 PM66 °FOvercast.14 mph73%29.95 "HgN/A
1:00 PM66 °FOvercast.13 mph73%29.95 "HgN/A
12:30 PM64 °FMostly cloudy.12 mph83%29.95 "HgN/A
12:00 PM64 °FMostly cloudy.10 mph83%29.95 "HgN/A
11:30 AM63 °FOvercast.10 mph88%29.95 "HgN/A
11:00 AM63 °FMore clouds than sun.12 mph88%29.95 "HgN/A
10:30 AM63 °FMostly cloudy.7 mph94%29.95 "Hg4 mi
10:00 AM63 °FPartly sunny.8 mph94%29.95 "Hg6 mi
9:30 AM63 °FMostly cloudy.8 mph94%29.95 "Hg3 mi
9:00 AM63 °FPartly sunny.6 mph88%29.95 "HgN/A
8:30 AM63 °FOvercast.5 mph88%29.95 "Hg6 mi
8:00 AM63 °FOvercast.6 mph88%29.92 "HgN/A
7:30 AM63 °FOvercast.5 mph88%29.92 "HgN/A
7:00 AM63 °FOvercast.2 mph88%29.92 "HgN/A
6:30 AM63 °FOvercast.3 mph88%29.89 "HgN/A
6:00 AM63 °FOvercast.7 mph88%29.89 "HgN/A
5:30 AM63 °FOvercast.6 mph88%29.89 "HgN/A
5:00 AM63 °FOvercast.9 mph88%29.86 "HgN/A
4:30 AM63 °FOvercast.10 mph88%29.86 "HgN/A
4:00 AM63 °FOvercast.12 mph88%29.86 "HgN/A
3:30 AM63 °FPassing clouds.13 mph88%29.86 "HgN/A
3:00 AM63 °FPassing clouds.13 mph88%29.86 "HgN/A
2:30 AM63 °FMild.14 mph88%29.86 "HgN/A
2:00 AM63 °FMild.14 mph88%29.86 "HgN/A
1:30 AM63 °FMild.13 mph88%29.86 "HgN/A
1:00 AM63 °FMild.14 mph88%29.86 "HgN/A
12:30 AM63 °FMild.15 mph88%29.86 "HgN/A
12:00 AM63 °FMild.16 mph88%29.86 "HgN/A
11:30 PM
Jan 26
63 °FMild.18 mph88%29.86 "HgN/A
11:00 PM63 °FMild.16 mph88%29.86 "HgN/A
10:30 PM63 °FMild.14 mph88%29.89 "HgN/A
10:00 PM64 °FMild.13 mph83%29.89 "HgN/A
9:30 PM64 °FMild.15 mph83%29.86 "HgN/A
9:00 PM64 °FMild.14 mph83%29.86 "HgN/A
8:30 PM64 °FMild.16 mph78%29.86 "HgN/A
8:00 PM66 °FMild.16 mph73%29.86 "HgN/A
7:30 PM68 °FMild.17 mph69%29.86 "HgN/A
7:00 PM68 °FMild.17 mph69%29.86 "HgN/A
Weather by CustomWeather, © 2014

See weather overviewHow to use our weather pages